| time (UTC) | temp F | wind direction | speed MPH | gust MPH | rain 1hr in | rain 24hr in | rain mn in | humidity % | barometer mb |
| 20260505022333 | 71 | 228 | 0.0 | 2.0 | 0.00 | 0.00 | 0.00 | 48 | 1017.1 |
| 20260505021830 | 72 | 178 | 0.0 | 2.0 | 0.00 | 0.00 | 0.00 | 47 | 1017.0 |
| 20260505021327 | 72 | 166 | 0.0 | 2.0 | 0.00 | 0.00 | 0.00 | 47 | 1017.2 |
| 20260505020822 | 73 | 260 | 0.0 | 3.0 | 0.00 | 0.00 | 0.00 | 46 | 1016.9 |
| 20260505020318 | 73 | 348 | 1.0 | 3.0 | 0.00 | 0.00 | 0.00 | 46 | 1016.8 |
| 20260505015815 | 73 | 256 | 2.0 | 3.0 | 0.00 | 0.00 | 0.00 | 48 | 1016.9 |
| 20260505015312 | 73 | 242 | 2.0 | 3.0 | 0.00 | 0.00 | 0.00 | 47 | 1016.9 |
| 20260505014810 | 74 | 240 | 2.0 | 3.0 | 0.00 | 0.00 | 0.00 | 47 | 1017.0 |
| 20260505014307 | 74 | 225 | 1.0 | 2.0 | 0.00 | 0.00 | 0.00 | 44 | 1016.9 |
| 20260505013803 | 74 | 248 | 2.0 | 3.0 | 0.00 | 0.00 | 0.00 | 42 | 1016.8 |
| 20260505013300 | 74 | 246 | 2.0 | 3.0 | 0.00 | 0.00 | 0.00 | 43 | 1017.1 |
| 20260505012759 | 75 | 243 | 2.0 | 3.0 | 0.00 | 0.00 | 0.00 | 42 | 1016.9 |
| 20260505012256 | 75 | 259 | 2.0 | 3.0 | 0.00 | 0.00 | 0.00 | 43 | 1016.7 |
| 20260505011752 | 75 | 244 | 2.0 | 3.0 | 0.00 | 0.00 | 0.00 | 43 | 1016.9 |
| 20260505011249 | 76 | 284 | 0.0 | 2.0 | 0.00 | 0.00 | 0.00 | 42 | 1016.9 |
| 20260505010744 | 76 | 167 | 0.0 | 2.0 | 0.00 | 0.00 | 0.00 | 41 | 1016.9 |
| 20260505010241 | 77 | 89 | 0.0 | 2.0 | 0.00 | 0.00 | 0.00 | 40 | 1017.0 |
| 20260505005737 | 80 | 303 | 2.0 | 2.0 | 0.00 | 0.00 | 0.00 | 37 | 1016.9 |
| 20260505005234 | 82 | 269 | 0.0 | 2.0 | 0.00 | 0.00 | 0.00 | 35 | 1017.0 |
| 20260505004731 | 80 | 296 | 1.0 | 3.0 | 0.00 | 0.00 | 0.00 | 37 | 1016.9 |
| 20260505004228 | 80 | 23 | 2.0 | 5.0 | 0.00 | 0.00 | 0.00 | 37 | 1016.8 |
| 20260505003725 | 79 | 248 | 3.0 | 4.0 | 0.00 | 0.00 | 0.00 | 39 | 1016.8 |
| 20260505003223 | 78 | 308 | 0.0 | 2.0 | 0.00 | 0.00 | 0.00 | 39 | 1016.9 |
| 20260505002719 | 78 | 170 | 2.0 | 4.0 | 0.00 | 0.00 | 0.00 | 38 | 1017.1 |
| 20260505002216 | 77 | 145 | 0.0 | 5.0 | 0.00 | 0.00 | 0.00 | 40 | 1016.9 |
| 20260505001714 | 77 | 329 | 1.0 | 2.0 | 0.00 | 0.00 | 0.00 | 38 | 1016.9 |
| 20260505001211 | 78 | 271 | 2.0 | 2.0 | 0.00 | 0.00 | 0.00 | 38 | 1017.1 |
| 20260505000708 | 78 | 268 | 1.0 | 2.0 | 0.00 | 0.00 | 0.00 | 39 | 1017.0 |
| 20260505000206 | 78 | 225 | 0.0 | 2.0 | 0.00 | 0.00 | 0.00 | 39 | 1017.0 |
| 20260504235702 | 77 | 324 | 3.0 | 4.0 | 0.00 | 0.00 | 0.00 | 40 | 1017.3 |
| 20260504235158 | 78 | 18 | 4.0 | 5.0 | 0.00 | 0.00 | 0.00 | 39 | 1017.0 |
| 20260504234656 | 79 | 121 | 2.0 | 2.0 | 0.00 | 0.00 | 0.00 | 37 | 1017.3 |
| 20260504234153 | 79 | 299 | 0.0 | 4.0 | 0.00 | 0.00 | 0.00 | 39 | 1017.2 |
| 20260504233649 | 80 | 121 | 2.0 | 2.0 | 0.00 | 0.00 | 0.00 | 37 | 1017.2 |
| 20260504233145 | 79 | 236 | 1.0 | 2.0 | 0.00 | 0.00 | 0.00 | 37 | 1017.0 |
| 20260504232643 | 79 | 261 | 3.0 | 5.0 | 0.00 | 0.00 | 0.00 | 37 | 1017.4 |
| 20260504232139 | 81 | 326 | 0.0 | 3.0 | 0.00 | 0.00 | 0.00 | 35 | 1017.1 |
| 20260504231636 | 80 | 162 | 3.0 | 3.0 | 0.00 | 0.00 | 0.00 | 37 | 1017.2 |
| 20260504231132 | 80 | 35 | 0.0 | 5.0 | 0.00 | 0.00 | 0.00 | 35 | 1017.2 |
| 20260504230629 | 78 | 359 | 1.0 | 3.0 | 0.00 | 0.00 | 0.00 | 36 | 1017.2 |
| 20260504230127 | 78 | 108 | 1.0 | 5.0 | 0.00 | 0.00 | 0.00 | 37 | 1017.2 |
| 20260504225625 | 81 | 127 | 0.0 | 4.0 | 0.00 | 0.00 | 0.00 | 37 | 1017.3 |
| 20260504225121 | 80 | 78 | 3.0 | 4.0 | 0.00 | 0.00 | 0.00 | 37 | 1017.3 |
| 20260504224618 | 80 | 57 | 2.0 | 7.0 | 0.00 | 0.00 | 0.00 | 35 | 1017.4 |
| 20260504224115 | 78 | 60 | 0.0 | 6.0 | 0.00 | 0.00 | 0.00 | 37 | 1017.4 |
| 20260504223612 | 78 | 12 | 1.0 | 4.0 | 0.00 | 0.00 | 0.00 | 38 | 1017.4 |
| 20260504223108 | 79 | 43 | 4.0 | 4.0 | 0.00 | 0.00 | 0.00 | 37 | 1017.3 |
| 20260504222605 | 79 | 139 | 0.0 | 3.0 | 0.00 | 0.00 | 0.00 | 36 | 1017.3 |
| 20260504222102 | 81 | 306 | 2.0 | 3.0 | 0.00 | 0.00 | 0.00 | 35 | 1017.7 |
| 20260504221559 | 80 | 164 | 2.0 | 5.0 | 0.00 | 0.00 | 0.00 | 36 | 1017.5 |
| 20260504221056 | 79 | 125 | 1.0 | 3.0 | 0.00 | 0.00 | 0.00 | 38 | 1017.7 |
| 20260504220552 | 79 | 106 | 1.0 | 3.0 | 0.00 | 0.00 | 0.00 | 38 | 1017.5 |
| 20260504220049 | 79 | 46 | 4.0 | 4.0 | 0.00 | 0.00 | 0.00 | 38 | 1017.8 |
| 20260504215546 | 78 | 252 | 0.0 | 1.0 | 0.00 | 0.00 | 0.00 | 36 | 1017.9 |
| 20260504215044 | 79 | 47 | 4.0 | 5.0 | 0.00 | 0.00 | 0.00 | 37 | 1018.0 |
| 20260504214539 | 78 | 44 | 3.0 | 3.0 | 0.00 | 0.00 | 0.00 | 38 | 1018.0 |
| 20260504214036 | 78 | 72 | 2.0 | 2.0 | 0.00 | 0.00 | 0.00 | 35 | 1017.9 |
| 20260504213532 | 77 | 14 | 6.0 | 6.0 | 0.00 | 0.00 | 0.00 | 39 | 1018.0 |
| 20260504213030 | 76 | 24 | 5.0 | 10.0 | 0.00 | 0.00 | 0.00 | 39 | 1018.0 |
| 20260504212525 | 77 | 45 | 6.0 | 8.0 | 0.00 | 0.00 | 0.00 | 38 | 1018.0 |
| 20260504212023 | 78 | 126 | 4.0 | 4.0 | 0.00 | 0.00 | 0.00 | 38 | 1018.0 |
| 20260504211520 | 78 | 46 | 4.0 | 4.0 | 0.00 | 0.00 | 0.00 | 37 | 1018.0 |
| 20260504211017 | 78 | 118 | 3.0 | 5.0 | 0.00 | 0.00 | 0.00 | 36 | 1018.2 |
| 20260504210514 | 77 | 6 | 2.0 | 4.0 | 0.00 | 0.00 | 0.00 | 39 | 1018.2 |
| 20260504210010 | 77 | 69 | 1.0 | 2.0 | 0.00 | 0.00 | 0.00 | 36 | 1018.2 |
| 20260504205508 | 77 | 34 | 2.0 | 4.0 | 0.00 | 0.00 | 0.00 | 39 | 1018.2 |
| 20260504205006 | 77 | 35 | 4.0 | 8.0 | 0.00 | 0.00 | 0.00 | 38 | 1018.1 |
| 20260504204504 | 76 | 13 | 3.0 | 6.0 | 0.00 | 0.00 | 0.00 | 40 | 1018.3 |
| 20260504204003 | 78 | 278 | 3.0 | 3.0 | 0.00 | 0.00 | 0.00 | 38 | 1018.2 |
| 20260504203500 | 78 | 107 | 0.0 | 3.0 | 0.00 | 0.00 | 0.00 | 39 | 1018.3 |
| 20260504202956 | 78 | 191 | 4.0 | 5.0 | 0.00 | 0.00 | 0.00 | 35 | 1018.3 |
| 20260504202453 | 78 | 332 | 0.0 | 5.0 | 0.00 | 0.00 | 0.00 | 36 | 1018.2 |
| 20260504201950 | 78 | 212 | 3.0 | 4.0 | 0.00 | 0.00 | 0.00 | 40 | 1018.4 |
| 20260504201447 | 77 | 240 | 2.0 | 3.0 | 0.00 | 0.00 | 0.00 | 42 | 1018.3 |
| 20260504200944 | 76 | 179 | 0.0 | 2.0 | 0.00 | 0.00 | 0.00 | 43 | 1018.3 |
| 20260504200441 | 76 | 63 | 3.0 | 3.0 | 0.00 | 0.00 | 0.00 | 44 | 1018.2 |
| 20260504195938 | 77 | 89 | 1.0 | 4.0 | 0.00 | 0.00 | 0.00 | 44 | 1018.4 |
| 20260504195433 | 77 | 84 | 2.0 | 5.0 | 0.00 | 0.00 | 0.00 | 43 | 1018.3 |
| 20260504194930 | 76 | 158 | 0.0 | 3.0 | 0.00 | 0.00 | 0.00 | 43 | 1018.4 |
| 20260504194426 | 75 | 110 | 3.0 | 8.0 | 0.00 | 0.00 | 0.00 | 47 | 1018.2 |
| 20260504193922 | 76 | 122 | 3.0 | 6.0 | 0.00 | 0.00 | 0.00 | 45 | 1018.2 |
| 20260504193420 | 76 | 149 | 2.0 | 3.0 | 0.00 | 0.00 | 0.00 | 45 | 1018.2 |
| 20260504192918 | 77 | 45 | 0.0 | 3.0 | 0.00 | 0.00 | 0.00 | 44 | 1018.3 |
| 20260504192415 | 76 | 124 | 4.0 | 4.0 | 0.00 | 0.00 | 0.00 | 44 | 1018.3 |
| 20260504191914 | 76 | 157 | 2.0 | 5.0 | 0.00 | 0.00 | 0.00 | 45 | 1018.1 |
| 20260504191412 | 76 | 54 | 3.0 | 3.0 | 0.00 | 0.00 | 0.00 | 47 | 1018.5 |
| 20260504190906 | 76 | 60 | 2.0 | 4.0 | 0.00 | 0.00 | 0.00 | 43 | 1018.5 |
| 20260504190403 | 75 | 89 | 4.0 | 4.0 | 0.00 | 0.00 | 0.00 | 46 | 1018.4 |
| 20260504185900 | 75 | 81 | 2.0 | 3.0 | 0.00 | 0.00 | 0.00 | 46 | 1018.5 |
| 20260504185357 | 75 | 64 | 3.0 | 5.0 | 0.00 | 0.00 | 0.00 | 45 | 1018.4 |
| 20260504184853 | 76 | 123 | 2.0 | 4.0 | 0.00 | 0.00 | 0.00 | 43 | 1018.7 |
| 20260504184348 | 75 | 105 | 3.0 | 6.0 | 0.00 | 0.00 | 0.00 | 43 | 1018.3 |
| 20260504183844 | 76 | 34 | 3.0 | 5.0 | 0.00 | 0.00 | 0.00 | 45 | 1018.5 |
| 20260504183342 | 75 | 81 | 2.0 | 5.0 | 0.00 | 0.00 | 0.00 | 45 | 1018.6 |
| 20260504182840 | 75 | 63 | 2.0 | 3.0 | 0.00 | 0.00 | 0.00 | 45 | 1018.5 |
| 20260504182337 | 77 | 168 | 5.0 | 5.0 | 0.00 | 0.00 | 0.00 | 42 | 1018.5 |
| 20260504181833 | 76 | 123 | 3.0 | 4.0 | 0.00 | 0.00 | 0.00 | 44 | 1018.7 |
| 20260504181331 | 75 | 91 | 4.0 | 5.0 | 0.00 | 0.00 | 0.00 | 45 | 1018.5 |
| 20260504180830 | 75 | 64 | 2.0 | 3.0 | 0.00 | 0.00 | 0.00 | 45 | 1018.4 |
| 20260504180328 | 75 | 136 | 3.0 | 4.0 | 0.00 | 0.00 | 0.00 | 45 | 1018.4 |
| 20260504175826 | 74 | 106 | 2.0 | 2.0 | 0.00 | 0.00 | 0.00 | 47 | 1018.3 |
| 20260504175322 | 74 | 73 | 3.0 | 6.0 | 0.00 | 0.00 | 0.00 | 46 | 1018.3 |
| 20260504174821 | 74 | 211 | 2.0 | 5.0 | 0.00 | 0.00 | 0.00 | 45 | 1018.3 |
| 20260504174318 | 74 | 157 | 5.0 | 5.0 | 0.00 | 0.00 | 0.00 | 45 | 1018.0 |
| 20260504173814 | 75 | 127 | 2.0 | 3.0 | 0.00 | 0.00 | 0.00 | 46 | 1018.3 |
| 20260504173311 | 74 | 103 | 2.0 | 3.0 | 0.00 | 0.00 | 0.00 | 47 | 1018.3 |
| 20260504172808 | 73 | 201 | 3.0 | 3.0 | 0.00 | 0.00 | 0.00 | 46 | 1018.5 |
| 20260504172305 | 73 | 168 | 0.0 | 4.0 | 0.00 | 0.00 | 0.00 | 47 | 1018.3 |
| 20260504171800 | 73 | 119 | 2.0 | 3.0 | 0.00 | 0.00 | 0.00 | 46 | 1018.4 |
| 20260504171258 | 74 | 245 | 1.0 | 2.0 | 0.00 | 0.00 | 0.00 | 44 | 1018.3 |
| 20260504170755 | 72 | 85 | 1.0 | 3.0 | 0.00 | 0.00 | 0.00 | 45 | 1018.2 |
| 20260504170252 | 73 | 196 | 2.0 | 2.0 | 0.00 | 0.00 | 0.00 | 47 | 1018.4 |
| 20260504160210 | 70 | 302 | 0.0 | 2.0 | 0.00 | 0.00 | 0.00 | 61 | 1018.3 |
| 20260504151138 | 58 | 44 | 0.0 | 2.0 | 0.00 | 0.00 | 0.00 | 86 | 1017.8 |
| 20260504150636 | 58 | 55 | 1.0 | 2.0 | 0.00 | 0.00 | 0.00 | 86 | 1017.9 |
| 20260504150132 | 57 | 27 | 1.0 | 2.0 | 0.00 | 0.00 | 0.00 | 87 | 1018.0 |
| 20260504141101 | 54 | 128 | 0.0 | 2.0 | 0.00 | 0.00 | 0.00 | 94 | 1017.6 |
| 20260504140558 | 53 | 42 | 0.0 | 2.0 | 0.00 | 0.00 | 0.00 | 94 | 1017.7 |
| 20260504130522 | 52 | 229 | 0.0 | 2.0 | 0.00 | 0.00 | 0.00 | 96 | 1017.6 |
| 20260504110409 | 53 | 70 | 0.0 | 2.0 | 0.00 | 0.00 | 0.00 | 95 | 1017.1 |
| 20260504100326 | 54 | 326 | 0.0 | 2.0 | 0.00 | 0.00 | 0.00 | 94 | 1017.2 |
| 20260504081720 | 55 | 257 | 0.0 | 2.0 | 0.00 | 0.00 | 0.00 | 89 | 1017.2 |
| 20260504081216 | 55 | 326 | 1.0 | 2.0 | 0.00 | 0.00 | 0.00 | 89 | 1017.3 |
| 20260504080713 | 55 | 353 | 0.0 | 1.0 | 0.00 | 0.00 | 0.00 | 89 | 1017.4 |
| 20260504080209 | 55 | 113 | 0.0 | 1.0 | 0.00 | 0.00 | 0.00 | 88 | 1017.4 |
| 20260504070137 | 56 | 310 | 1.0 | 2.0 | 0.00 | 0.00 | 0.00 | 84 | 1017.4 |
| 20260504050526 | 60 | 55 | 0.0 | 1.0 | 0.00 | 0.00 | 0.00 | 77 | 1017.4 |
| 20260504050023 | 60 | 333 | 0.0 | 2.0 | 0.00 | 0.00 | 0.00 | 75 | 1017.4 |
| 20260504045520 | 60 | 225 | 1.0 | 2.0 | 0.00 | 0.00 | 0.00 | 74 | 1017.3 |
| 20260504045015 | 61 | 231 | 0.0 | 2.0 | 0.00 | 0.00 | 0.00 | 73 | 1017.4 |
| 20260504044513 | 61 | 344 | 1.0 | 1.0 | 0.00 | 0.00 | 0.00 | 73 | 1017.3 |
| 20260504044009 | 61 | 155 | 0.0 | 2.0 | 0.00 | 0.00 | 0.00 | 71 | 1017.2 |
| 20260504043506 | 62 | 154 | 1.0 | 2.0 | 0.00 | 0.00 | 0.00 | 69 | 1017.4 |
| 20260504043004 | 62 | 302 | 0.0 | 1.0 | 0.00 | 0.00 | 0.00 | 68 | 1017.5 |
| 20260504042500 | 62 | 100 | 0.0 | 1.0 | 0.00 | 0.00 | 0.00 | 67 | 1017.6 |
| 20260504041957 | 63 | 89 | 0.0 | 1.0 | 0.00 | 0.00 | 0.00 | 65 | 1017.5 |
| 20260504041453 | 63 | 98 | 1.0 | 2.0 | 0.00 | 0.00 | 0.00 | 64 | 1017.4 |
| 20260504040949 | 64 | 72 | 2.0 | 2.0 | 0.00 | 0.00 | 0.00 | 63 | 1017.4 |
| 20260504040447 | 64 | 121 | 2.0 | 2.0 | 0.00 | 0.00 | 0.00 | 61 | 1017.5 |
| 20260504035943 | 64 | 98 | 1.0 | 1.0 | 0.00 | 0.00 | 0.00 | 59 | 1017.2 |
| 20260504035441 | 65 | 150 | 0.0 | 2.0 | 0.00 | 0.00 | 0.00 | 60 | 1017.5 |
| 20260504034937 | 65 | 81 | 0.0 | 2.0 | 0.00 | 0.00 | 0.00 | 58 | 1017.2 |
| 20260504034434 | 66 | 127 | 0.0 | 2.0 | 0.00 | 0.00 | 0.00 | 56 | 1017.0 |
| 20260504033931 | 66 | 66 | 1.0 | 3.0 | 0.00 | 0.00 | 0.00 | 55 | 1017.3 |
| 20260504033429 | 67 | 112 | 0.0 | 2.0 | 0.00 | 0.00 | 0.00 | 54 | 1017.1 |
| 20260504032926 | 68 | 129 | 1.0 | 2.0 | 0.00 | 0.00 | 0.00 | 53 | 1017.0 |
| 20260504032423 | 69 | 137 | 1.0 | 1.0 | 0.00 | 0.00 | 0.00 | 50 | 1017.3 |
| 20260504031919 | 69 | 309 | 0.0 | 1.0 | 0.00 | 0.00 | 0.00 | 49 | 1017.3 |
| 20260504031417 | 69 | 151 | 0.0 | 2.0 | 0.00 | 0.00 | 0.00 | 50 | 1017.1 |
| 20260504030913 | 70 | 174 | 1.0 | 2.0 | 0.00 | 0.00 | 0.00 | 51 | 1017.3 |
| 20260504030410 | 70 | 236 | 0.0 | 2.0 | 0.00 | 0.00 | 0.00 | 50 | 1017.1 |
| 20260504025906 | 71 | 256 | 0.0 | 2.0 | 0.00 | 0.00 | 0.00 | 49 | 1017.0 |
| 20260504025403 | 72 | 257 | 0.0 | 1.0 | 0.00 | 0.00 | 0.00 | 48 | 1017.1 |
| 20260504024900 | 72 | 299 | 0.0 | 2.0 | 0.00 | 0.00 | 0.00 | 47 | 1017.3 |
| 20260504024356 | 73 | 267 | 1.0 | 2.0 | 0.00 | 0.00 | 0.00 | 46 | 1017.1 |
| 20260504023854 | 73 | 292 | 1.0 | 4.0 | 0.00 | 0.00 | 0.00 | 47 | 1017.0 |
| 20260504023350 | 73 | 243 | 3.0 | 3.0 | 0.00 | 0.00 | 0.00 | 50 | 1017.1 |
| 20260504022846 | 73 | 258 | 2.0 | 3.0 | 0.00 | 0.00 | 0.00 | 49 | 1017.2 |